KAC613 OKKK-OBBI

Flight info

Callsign KAC613
Flight time 0h 57m
Altitude 27000
Route BOXIK B416 IMDOX P975 LONOS L703 KOBOK
Aircraft A20N/M-SDE2E3FGHIRWXY/LB1

Departure

Time 2026-04-27 16:53
Airport Kuwait International Airport (OKKK)

Arrival

Time 2026-04-27 17:51
Airport Bahrain International Airport (OBBI)
Time Latitude Longitude Altitude Speed Heading
2026-04-27 16:25 29.24916 47.96095 135 ft 0 kts 56°
2026-04-27 16:40 29.24916 47.96094 135 ft 1 kts 57°
2026-04-27 16:40 29.24908 47.96080 135 ft 2 kts 56°
2026-04-27 16:40 29.24899 47.96066 135 ft 2 kts 56°
2026-04-27 16:41 29.24891 47.96051 135 ft 2 kts 56°
2026-04-27 16:41 29.24882 47.96037 135 ft 2 kts 56°
2026-04-27 16:41 29.24874 47.96023 135 ft 2 kts 56°
2026-04-27 16:41 29.24866 47.96008 135 ft 2 kts 76°
2026-04-27 16:42 29.24865 47.95991 135 ft 2 kts 96°
2026-04-27 16:42 29.24869 47.95974 135 ft 2 kts 118°
2026-04-27 16:42 29.24878 47.95961 135 ft 2 kts 141°
2026-04-27 16:42 29.24885 47.95955 135 ft 1 kts 154°
2026-04-27 16:43 29.24891 47.95952 135 ft 0 kts 156°
2026-04-27 16:46 29.24885 47.95955 135 ft 1 kts 155°
2026-04-27 16:46 29.24862 47.95967 135 ft 5 kts 155°
2026-04-27 16:46 29.24817 47.95991 136 ft 8 kts 155°
2026-04-27 16:47 29.24752 47.96025 136 ft 11 kts 155°
2026-04-27 16:47 29.24677 47.96066 137 ft 11 kts 155°
2026-04-27 16:47 29.24602 47.96106 137 ft 11 kts 155°
2026-04-27 16:47 29.24529 47.96145 138 ft 11 kts 154°
2026-04-27 16:48 29.24456 47.96184 138 ft 11 kts 155°
2026-04-27 16:48 29.24380 47.96224 138 ft 12 kts 155°
2026-04-27 16:48 29.24308 47.96263 139 ft 9 kts 154°
2026-04-27 16:49 29.24276 47.96280 139 ft 3 kts 155°
2026-04-27 16:49 29.24220 47.96310 140 ft 9 kts 155°
2026-04-27 16:49 29.24163 47.96292 141 ft 9 kts 238°
2026-04-27 16:49 29.24152 47.96266 140 ft 2 kts 244°
2026-04-27 16:50 29.24138 47.96233 140 ft 5 kts 243°
2026-04-27 16:50 29.24108 47.96193 139 ft 7 kts 203°
2026-04-27 16:50 29.24054 47.96184 140 ft 7 kts 186°
2026-04-27 16:50 29.24000 47.96181 141 ft 7 kts 172°
2026-04-27 16:51 29.23984 47.96186 142 ft 0 kts 158°
2026-04-27 16:51 29.23978 47.96189 142 ft 0 kts 156°
2026-04-27 16:52 29.23976 47.96190 142 ft 1 kts 156°
2026-04-27 16:52 29.23798 47.96285 142 ft 63 kts 155°
2026-04-27 16:52 29.23192 47.96607 148 ft 125 kts 155°
2026-04-27 16:53 29.22251 47.97110 269 ft 164 kts 155°
2026-04-27 16:53 29.21224 47.97649 872 ft 162 kts 155°
2026-04-27 16:53 29.20261 47.98259 1552 ft 162 kts 139°
2026-04-27 16:53 29.19605 47.99328 2170 ft 169 kts 129°
2026-04-27 16:54 29.18763 48.00283 2540 ft 179 kts 143°
2026-04-27 16:54 29.17822 48.01335 2898 ft 198 kts 136°
2026-04-27 16:54 29.16875 48.02574 3164 ft 221 kts 133°
2026-04-27 16:54 29.15830 48.03954 3589 ft 239 kts 134°
2026-04-27 16:55 29.14702 48.05443 4054 ft 255 kts 134°
2026-04-27 16:55 29.13531 48.06998 4761 ft 262 kts 134°
2026-04-27 16:55 29.12365 48.08589 5525 ft 265 kts 130°
2026-04-27 16:55 29.11391 48.10422 6284 ft 273 kts 120°
2026-04-27 16:56 29.10556 48.12359 7056 ft 278 kts 119°
2026-04-27 16:56 29.09707 48.14363 7827 ft 283 kts 120°
2026-04-27 16:56 29.08832 48.16393 8577 ft 289 kts 119°
2026-04-27 16:56 29.07941 48.18436 9301 ft 295 kts 120°
2026-04-27 16:57 29.07004 48.20552 10051 ft 300 kts 120°
2026-04-27 16:57 29.06046 48.22692 10704 ft 309 kts 120°
2026-04-27 16:57 29.05044 48.24931 11095 ft 326 kts 119°
2026-04-27 16:57 29.03986 48.27294 11461 ft 345 kts 119°
2026-04-27 16:58 29.02867 48.29787 11807 ft 361 kts 119°
2026-04-27 16:58 29.01697 48.32383 12208 ft 376 kts 119°
2026-04-27 16:58 29.00511 48.35011 13132 ft 369 kts 119°
2026-04-27 16:58 28.99380 48.37527 13997 ft 346 kts 120°
2026-04-27 16:59 28.98286 48.39949 14784 ft 346 kts 120°
2026-04-27 16:59 28.97183 48.42387 15535 ft 348 kts 120°
2026-04-27 16:59 28.96057 48.44866 16030 ft 359 kts 120°
2026-04-27 16:59 28.94892 48.47434 16559 ft 367 kts 120°
2026-04-27 17:00 28.93332 48.50873 17394 ft 372 kts 120°
2026-04-27 17:00 28.91331 48.55278 18439 ft 379 kts 120°
2026-04-27 17:00 28.90119 48.57943 19054 ft 382 kts 120°
2026-04-27 17:01 28.88887 48.60651 19672 ft 386 kts 121°
2026-04-27 17:01 28.87652 48.63363 20253 ft 390 kts 121°
2026-04-27 17:01 28.86398 48.66115 20842 ft 394 kts 121°
2026-04-27 17:01 28.85136 48.68885 21433 ft 397 kts 122°
2026-04-27 17:02 28.83846 48.71711 22033 ft 400 kts 122°
2026-04-27 17:02 28.82574 48.74495 22596 ft 404 kts 122°
2026-04-27 17:02 28.81275 48.77337 23143 ft 408 kts 122°
2026-04-27 17:02 28.79947 48.80225 23685 ft 411 kts 123°
2026-04-27 17:03 28.78559 48.83093 24207 ft 415 kts 124°
2026-04-27 17:03 28.77148 48.85947 24652 ft 420 kts 124°
2026-04-27 17:03 28.75712 48.88850 25098 ft 425 kts 124°
2026-04-27 17:03 28.74255 48.91801 25578 ft 429 kts 125°
2026-04-27 17:04 28.72782 48.94787 26019 ft 433 kts 125°
2026-04-27 17:04 28.71306 48.97787 26443 ft 438 kts 126°
2026-04-27 17:04 28.69800 49.00839 26716 ft 447 kts 126°
2026-04-27 17:04 28.68257 49.03963 26780 ft 461 kts 125°
2026-04-27 17:05 28.66673 49.07165 26779 ft 472 kts 125°
2026-04-27 17:05 28.65068 49.10427 26787 ft 475 kts 125°
2026-04-27 17:05 28.63461 49.13701 26788 ft 476 kts 124°
2026-04-27 17:05 28.62384 49.15884 26785 ft 476 kts 124°
2026-04-27 17:06 28.60198 49.20294 26796 ft 475 kts 127°
2026-04-27 17:06 28.58254 49.23271 26792 ft 467 kts 139°
2026-04-27 17:06 28.55832 49.25679 26790 ft 462 kts 151°
2026-04-27 17:06 28.53131 49.27677 26796 ft 459 kts 155°
2026-04-27 17:07 28.50420 49.29637 26793 ft 464 kts 153°
2026-04-27 17:07 28.47820 49.31797 26797 ft 469 kts 148°
2026-04-27 17:07 28.45302 49.34153 26803 ft 473 kts 146°
2026-04-27 17:07 28.42764 49.36608 26801 ft 486 kts 145°
2026-04-27 17:08 28.40178 49.39152 26795 ft 496 kts 144°
2026-04-27 17:08 28.37548 49.41768 26801 ft 500 kts 144°
2026-04-27 17:08 28.34928 49.44378 26804 ft 500 kts 144°
2026-04-27 17:08 28.32334 49.46956 26800 ft 501 kts 144°
2026-04-27 17:09 28.29688 49.49582 26801 ft 501 kts 144°
2026-04-27 17:09 28.27049 49.52190 26805 ft 502 kts 145°
2026-04-27 17:09 28.24425 49.54776 26809 ft 502 kts 145°
2026-04-27 17:09 28.21784 49.57315 26805 ft 502 kts 147°
2026-04-27 17:10 28.19024 49.59743 26807 ft 500 kts 148°
2026-04-27 17:10 28.16231 49.62149 26806 ft 502 kts 148°
2026-04-27 17:10 28.13447 49.64541 26814 ft 502 kts 149°
2026-04-27 17:10 28.10686 49.66916 26812 ft 503 kts 149°
2026-04-27 17:11 28.07878 49.69326 26814 ft 502 kts 149°
2026-04-27 17:11 28.02226 49.73963 26813 ft 501 kts 152°
2026-04-27 17:11 27.99361 49.76201 26813 ft 502 kts 152°
2026-04-27 17:12 27.93578 49.80687 26818 ft 503 kts 152°
2026-04-27 17:12 27.90703 49.82921 26813 ft 504 kts 152°
2026-04-27 17:12 27.87722 49.85234 26814 ft 504 kts 152°
2026-04-27 17:13 27.84841 49.87476 26818 ft 503 kts 152°
2026-04-27 17:13 27.81975 49.89701 26815 ft 504 kts 152°
2026-04-27 17:13 27.79062 49.91953 26819 ft 504 kts 152°
2026-04-27 17:13 27.76186 49.94174 26815 ft 504 kts 152°
2026-04-27 17:14 27.73298 49.96402 26817 ft 505 kts 152°
2026-04-27 17:14 27.70376 49.98656 26816 ft 505 kts 152°
2026-04-27 17:14 27.67473 50.00908 26814 ft 504 kts 152°
2026-04-27 17:14 27.64592 50.03134 26818 ft 504 kts 152°
2026-04-27 17:15 27.61687 50.05365 26812 ft 504 kts 152°
2026-04-27 17:15 27.58797 50.07597 26811 ft 505 kts 152°
2026-04-27 17:15 27.55894 50.09833 26812 ft 504 kts 152°
2026-04-27 17:15 27.52997 50.12065 26808 ft 504 kts 152°
2026-04-27 17:16 27.50094 50.14303 26806 ft 504 kts 152°
2026-04-27 17:16 27.47214 50.16523 26810 ft 504 kts 152°
2026-04-27 17:16 27.44336 50.18733 26811 ft 503 kts 152°
2026-04-27 17:16 27.41512 50.20985 26808 ft 486 kts 150°
2026-04-27 17:17 27.38803 50.23204 26812 ft 472 kts 151°
2026-04-27 17:17 27.36181 50.25351 26805 ft 464 kts 151°
2026-04-27 17:17 27.33590 50.27465 26806 ft 457 kts 151°
2026-04-27 17:18 27.28411 50.31651 26054 ft 459 kts 151°
2026-04-27 17:18 27.25831 50.33729 25466 ft 456 kts 150°
2026-04-27 17:18 27.23269 50.35794 24719 ft 457 kts 150°
2026-04-27 17:18 27.20694 50.37865 23924 ft 459 kts 150°
2026-04-27 17:19 27.18109 50.39950 22992 ft 452 kts 149°
2026-04-27 17:19 27.15609 50.41969 22114 ft 439 kts 149°
2026-04-27 17:19 27.13176 50.43945 21423 ft 422 kts 149°
2026-04-27 17:19 27.10836 50.45836 20649 ft 408 kts 149°
2026-04-27 17:20 27.08597 50.47643 20075 ft 391 kts 149°
2026-04-27 17:20 27.06420 50.49400 19315 ft 381 kts 148°
2026-04-27 17:20 27.04295 50.51107 18539 ft 372 kts 148°
2026-04-27 17:20 27.02212 50.52783 17951 ft 358 kts 148°
2026-04-27 17:21 27.00242 50.54366 17364 ft 346 kts 148°
2026-04-27 17:21 26.98183 50.55680 16699 ft 332 kts 161°
2026-04-27 17:21 26.96069 50.56605 16023 ft 327 kts 156°
2026-04-27 17:21 26.94242 50.58118 15345 ft 328 kts 137°
2026-04-27 17:22 26.92725 50.59971 14673 ft 326 kts 134°
2026-04-27 17:22 26.91264 50.61896 14045 ft 325 kts 133°
2026-04-27 17:22 26.89799 50.63858 13604 ft 323 kts 133°
2026-04-27 17:22 26.88341 50.65811 13244 ft 319 kts 133°
2026-04-27 17:23 26.86927 50.67710 12839 ft 316 kts 133°
2026-04-27 17:23 26.85525 50.69594 12426 ft 314 kts 133°
2026-04-27 17:23 26.84151 50.71446 12223 ft 305 kts 133°
2026-04-27 17:23 26.82801 50.73260 12048 ft 295 kts 133°
2026-04-27 17:24 26.81513 50.74992 11820 ft 287 kts 133°
2026-04-27 17:24 26.80243 50.76700 11455 ft 286 kts 133°
2026-04-27 17:24 26.78970 50.78405 11099 ft 285 kts 133°
2026-04-27 17:24 26.77691 50.80111 10736 ft 284 kts 133°
2026-04-27 17:25 26.76355 50.81712 10368 ft 279 kts 147°
2026-04-27 17:25 26.74628 50.82457 10035 ft 265 kts 183°
2026-04-27 17:25 26.72846 50.82087 10012 ft 261 kts 199°
2026-04-27 17:25 26.71062 50.81544 10002 ft 263 kts 197°
2026-04-27 17:26 26.69277 50.81086 9993 ft 263 kts 195°
2026-04-27 17:26 26.67472 50.80664 9996 ft 263 kts 194°
2026-04-27 17:26 26.65698 50.80269 9844 ft 258 kts 194°
2026-04-27 17:26 26.63943 50.79890 9397 ft 259 kts 194°
2026-04-27 17:27 26.62177 50.79511 8890 ft 259 kts 194°
2026-04-27 17:27 26.60405 50.79139 8415 ft 259 kts 194°
2026-04-27 17:27 26.58621 50.78764 7951 ft 259 kts 194°
2026-04-27 17:27 26.56845 50.78390 7492 ft 258 kts 193°
2026-04-27 17:28 26.55088 50.78023 7031 ft 257 kts 193°
2026-04-27 17:28 26.53338 50.77660 6558 ft 256 kts 193°
2026-04-27 17:28 26.49850 50.76935 5996 ft 253 kts 193°
2026-04-27 17:29 26.48109 50.76577 5971 ft 255 kts 193°
2026-04-27 17:29 26.46354 50.76212 5892 ft 254 kts 193°
2026-04-27 17:29 26.44626 50.75787 5806 ft 253 kts 199°
2026-04-27 17:29 26.42998 50.75108 5630 ft 245 kts 207°
2026-04-27 17:30 26.41523 50.74246 5496 ft 233 kts 211°
2026-04-27 17:30 26.39039 50.72166 5218 ft 222 kts 238°
2026-04-27 17:30 26.38422 50.70607 5108 ft 221 kts 258°
2026-04-27 17:31 26.38345 50.68893 4995 ft 223 kts 278°
2026-04-27 17:31 26.38814 50.67255 4856 ft 220 kts 297°
2026-04-27 17:31 26.39612 50.65809 4681 ft 214 kts 301°
2026-04-27 17:31 26.40412 50.64457 4552 ft 206 kts 301°
2026-04-27 17:32 26.41193 50.63130 4449 ft 203 kts 301°
2026-04-27 17:32 26.42736 50.60467 4219 ft 204 kts 300°
2026-04-27 17:32 26.43505 50.59132 4105 ft 205 kts 301°
2026-04-27 17:33 26.44276 50.57790 3990 ft 205 kts 300°
2026-04-27 17:33 26.45033 50.56453 3864 ft 205 kts 296°
2026-04-27 17:33 26.45396 50.54952 3724 ft 201 kts 261°
2026-04-27 17:33 26.44879 50.53547 3608 ft 198 kts 226°
2026-04-27 17:34 26.43841 50.52531 3515 ft 199 kts 216°
2026-04-27 17:34 26.42713 50.51637 3397 ft 198 kts 213°
2026-04-27 17:34 26.41581 50.50770 3212 ft 196 kts 213°
2026-04-27 17:34 26.40454 50.49907 3012 ft 197 kts 213°
2026-04-27 17:35 26.39276 50.49125 2997 ft 197 kts 205°
2026-04-27 17:35 26.38016 50.48465 2990 ft 196 kts 200°
2026-04-27 17:35 26.36684 50.48308 2980 ft 196 kts 164°
2026-04-27 17:35 26.35502 50.49061 2907 ft 198 kts 137°
2026-04-27 17:36 26.34646 50.50193 2590 ft 190 kts 125°
2026-04-27 17:36 26.33929 50.51443 2127 ft 189 kts 120°
2026-04-27 17:36 26.33263 50.52653 1877 ft 176 kts 120°
2026-04-27 17:36 26.32629 50.53773 1643 ft 162 kts 120°
2026-04-27 17:37 26.32046 50.54780 1415 ft 148 kts 120°
2026-04-27 17:37 26.31494 50.55738 1411 ft 154 kts 120°
2026-04-27 17:37 26.30922 50.56728 2133 ft 153 kts 121°
2026-04-27 17:37 26.30325 50.57775 2600 ft 172 kts 123°
2026-04-27 17:38 26.29624 50.58987 2523 ft 198 kts 123°
2026-04-27 17:38 26.28861 50.60303 2451 ft 208 kts 123°
2026-04-27 17:38 26.28053 50.61694 2473 ft 219 kts 123°
2026-04-27 17:38 26.27244 50.63149 2483 ft 221 kts 115°
2026-04-27 17:39 26.26994 50.64835 2520 ft 230 kts 81°
2026-04-27 17:39 26.27671 50.66463 2878 ft 233 kts 49°
2026-04-27 17:39 26.28908 50.67635 2993 ft 235 kts 36°
2026-04-27 17:39 26.30262 50.68642 2996 ft 234 kts 33°
2026-04-27 17:40 26.31630 50.69622 2996 ft 234 kts 33°
2026-04-27 17:40 26.32989 50.70598 2995 ft 233 kts 33°
2026-04-27 17:40 26.34351 50.71577 2996 ft 232 kts 33°
2026-04-27 17:40 26.35715 50.72561 2995 ft 233 kts 32°
2026-04-27 17:41 26.37187 50.73312 2988 ft 233 kts
2026-04-27 17:41 26.38783 50.73132 2992 ft 230 kts 334°
2026-04-27 17:41 26.40027 50.72078 2996 ft 220 kts 309°
2026-04-27 17:41 26.40943 50.70787 2998 ft 208 kts 304°
2026-04-27 17:42 26.41785 50.69474 3001 ft 208 kts 303°
2026-04-27 17:42 26.42619 50.68149 3005 ft 208 kts 303°
2026-04-27 17:42 26.43450 50.66827 3005 ft 207 kts 303°
2026-04-27 17:42 26.44273 50.65511 2998 ft 209 kts 303°
2026-04-27 17:43 26.45118 50.64161 2996 ft 210 kts 303°
2026-04-27 17:43 26.45949 50.62830 2996 ft 209 kts 303°
2026-04-27 17:43 26.46786 50.61489 2988 ft 210 kts 303°
2026-04-27 17:43 26.47615 50.60153 2993 ft 210 kts 303°
2026-04-27 17:44 26.48401 50.58791 2991 ft 209 kts 290°
2026-04-27 17:44 26.48568 50.57219 2984 ft 205 kts 253°
2026-04-27 17:44 26.47871 50.55869 2993 ft 202 kts 222°
2026-04-27 17:44 26.46787 50.54881 3010 ft 201 kts 215°
2026-04-27 17:45 26.45638 50.53984 3004 ft 202 kts 213°
2026-04-27 17:45 26.44467 50.53093 2998 ft 202 kts 213°
2026-04-27 17:45 26.43297 50.52203 3001 ft 202 kts 213°
2026-04-27 17:45 26.42132 50.51308 2992 ft 203 kts 213°
2026-04-27 17:46 26.40964 50.50418 2986 ft 202 kts 212°
2026-04-27 17:46 26.39739 50.49740 2761 ft 198 kts 195°
2026-04-27 17:46 26.38376 50.49425 2420 ft 201 kts 186°
2026-04-27 17:46 26.36978 50.49333 2106 ft 201 kts 176°
2026-04-27 17:47 26.35598 50.49585 1994 ft 201 kts 154°
2026-04-27 17:47 26.34823 50.50147 1993 ft 198 kts 134°
2026-04-27 17:47 26.33741 50.51704 1990 ft 175 kts 120°
2026-04-27 17:47 26.33143 50.52815 1871 ft 164 kts 119°
2026-04-27 17:48 26.32562 50.53879 1625 ft 153 kts 119°
2026-04-27 17:48 26.32018 50.54834 1396 ft 140 kts 121°
2026-04-27 17:48 26.31494 50.55735 1221 ft 137 kts 120°
2026-04-27 17:48 26.30981 50.56622 1060 ft 136 kts 120°
2026-04-27 17:49 26.30467 50.57509 899 ft 136 kts 121°
2026-04-27 17:49 26.29949 50.58405 735 ft 136 kts 121°
2026-04-27 17:49 26.29437 50.59288 563 ft 135 kts 121°
2026-04-27 17:49 26.28928 50.60175 395 ft 135 kts 121°
2026-04-27 17:50 26.28422 50.61051 211 ft 135 kts 122°
2026-04-27 17:50 26.27466 50.62710 12 ft 97 kts 123°
2026-04-27 17:50 26.27161 50.63235 12 ft 70 kts 122°
2026-04-27 17:51 26.26949 50.63598 12 ft 46 kts 124°
2026-04-27 17:51 26.26773 50.63750 12 ft 21 kts 166°
2026-04-27 17:51 26.26741 50.63760 12 ft 0 kts 165°
2026-04-27 17:51 26.26730 50.63763 12 ft 2 kts 165°
2026-04-27 17:52 26.26708 50.63769 12 ft 4 kts 165°
2026-04-27 17:52 26.26676 50.63778 12 ft 5 kts 167°
2026-04-27 17:52 26.26634 50.63781 12 ft 6 kts 184°
2026-04-27 17:52 26.26602 50.63773 12 ft 7 kts 205°
2026-04-27 17:53 26.26563 50.63726 12 ft 7 kts 261°
2026-04-27 17:53 26.26582 50.63668 12 ft 8 kts 301°
2026-04-27 17:53 26.26617 50.63608 12 ft 10 kts 303°
2026-04-27 17:53 26.26656 50.63542 12 ft 9 kts 303°
2026-04-27 17:54 26.26695 50.63473 12 ft 11 kts 303°
2026-04-27 17:54 26.26734 50.63407 12 ft 5 kts 303°
2026-04-27 17:54 26.26748 50.63384 12 ft 3 kts 303°
2026-04-27 17:54 26.26765 50.63354 12 ft 7 kts 303°
2026-04-27 17:55 26.26795 50.63303 12 ft 8 kts 302°
2026-04-27 17:55 26.26828 50.63245 12 ft 4 kts 302°
2026-04-27 17:55 26.26828 50.63207 12 ft 5 kts 240°
2026-04-27 17:55 26.26794 50.63176 12 ft 5 kts 213°
2026-04-27 17:56 26.26765 50.63155 12 ft 3 kts 212°
2026-04-27 17:56 26.26754 50.63147 12 ft 1 kts 212°
2026-04-27 17:56 26.26753 50.63147 12 ft 0 kts 212°